When you browse on this site, cookies collect data to enhance your experience and personalize the content and advertising you see.
Visit our Privacy Policy to learn more. By continuing to use the site, you agree to this use of cookies and data.
  • In Hungary
  • List of Countries
  • For 7 days
  • Water Temperature
  • Weather Map
  • News
  • Weather Widgets
  • user-avatar
    Login

    Hourly Weather Lipuny

    Today, 29 January, Wednesday

    Time Temperature Precipitation Wind Pressure Humidity
    00:00 -1°C° 0.3 mm 3 mps 731 mmHg 96%
    01:00 -1°C° 0.3 mm 3 mps 731 mmHg 96%
    02:00 -1°C° 0 mm 3 mps 731 mmHg 92%
    03:00 -1°C° 0 mm 3 mps 730 mmHg 91%
    04:00 -3°C° 0 mm 4 mps 730 mmHg 91%
    05:00 -3°C° 0 mm 4 mps 730 mmHg 91%
    06:00 -3°C° 0 mm 4 mps 730 mmHg 92%
    07:00 -3°C° 0 mm 4 mps 730 mmHg 92%
    08:00 -3°C° 0 mm 4 mps 730 mmHg 93%
    09:00 -3°C° 0 mm 4 mps 730 mmHg 90%
    10:00 -2°C° 0 mm 4 mps 729 mmHg 87%
    11:00 -2°C° 0 mm 4 mps 729 mmHg 84%
    12:00 -2°C° 0 mm 4 mps 729 mmHg 84%
    13:00 -1°C° 0 mm 5 mps 729 mmHg 84%
    14:00 -1°C° 0 mm 5 mps 729 mmHg 84%
    15:00 -1°C° 0 mm 4 mps 728 mmHg 88%
    16:00 -1°C° 0 mm 4 mps 728 mmHg 91%
    17:00 -1°C° 0 mm 4 mps 727 mmHg 95%
    18:00 -1°C° 0 mm 5 mps 727 mmHg 95%
    19:00 -1°C° 0 mm 5 mps 727 mmHg 95%
    20:00 -1°C° 0 mm 5 mps 727 mmHg 96%
    21:00 -1°C° 0 mm 5 mps 727 mmHg 96%
    22:00 -1°C° 0 mm 5 mps 726 mmHg 96%
    23:00 -1°C° 0 mm 5 mps 726 mmHg 96%

    Tomorrow, 30 January, Thursday

    Time Temperature Precipitation Wind Pressure Humidity
    00:00 -1°C° 0 mm 5 mps 726 mmHg 96%
    01:00 -1°C° 0 mm 4 mps 725 mmHg 96%
    02:00 -1°C° 0 mm 4 mps 725 mmHg 96%
    03:00 -1°C° 0.1 mm 5 mps 725 mmHg 95%
    04:00 -1°C° 0.1 mm 5 mps 724 mmHg 95%
    05:00 -1°C° 0.1 mm 5 mps 723 mmHg 94%
    06:00 -1°C° 0.2 mm 5 mps 723 mmHg 95%
    07:00 -1°C° 0.2 mm 5 mps 723 mmHg 96%
    08:00 -2°C° 0.2 mm 5 mps 723 mmHg 96%
    09:00 -2°C° 0.6 mm 5 mps 723 mmHg 96%
    10:00 -2°C° 0.6 mm 5 mps 722 mmHg 97%
    11:00 -2°C° 0.6 mm 5 mps 722 mmHg 97%
    12:00 -2°C° 0.8 mm 5 mps 722 mmHg 97%
    13:00 -2°C° 0.8 mm 5 mps 722 mmHg 97%
    14:00 -2°C° 0.8 mm 5 mps 723 mmHg 97%
    15:00 -2°C° 0.6 mm 4 mps 723 mmHg 97%
    16:00 -1°C° 0.6 mm 3 mps 723 mmHg 96%
    17:00 -2°C° 0.6 mm 3 mps 723 mmHg 95%
    18:00 -2°C° 0.2 mm 2 mps 723 mmHg 95%
    19:00 -2°C° 0.2 mm 2 mps 724 mmHg 95%
    20:00 -2°C° 0.2 mm 2 mps 724 mmHg 95%
    21:00 -1°C° 0.1 mm 1 mps 724 mmHg 96%
    22:00 -1°C° 0.1 mm 1 mps 724 mmHg 96%
    23:00 -1°C° 0.1 mm 1 mps 724 mmHg 96%

    Day after tomorrow, 31 January, Friday

    Time Temperature Precipitation Wind Pressure Humidity
    00:00 -1°C° 0.1 mm 1 mps 725 mmHg 96%
    01:00 -1°C° 0.1 mm 1 mps 725 mmHg 96%
    02:00 -1°C° 0.1 mm 1 mps 725 mmHg 96%
    03:00 -1°C° 0.2 mm 1 mps 725 mmHg 97%
    04:00 -1°C° 0.2 mm 1 mps 725 mmHg 97%
    05:00 -1°C° 0.2 mm 1 mps 725 mmHg 97%
    06:00 -1°C° 0.1 mm 1 mps 725 mmHg 97%
    07:00 -1°C° 0.1 mm 1 mps 725 mmHg 97%
    08:00 -1°C° 0.1 mm 1 mps 726 mmHg 97%
    09:00 -1°C° 0.1 mm 1 mps 726 mmHg 96%
    10:00 0°C° 0.1 mm 1 mps 726 mmHg 95%
    11:00 -2°C° 0.1 mm 2 mps 726 mmHg 95%
    12:00 -1°C° 0.1 mm 2 mps 726 mmHg 94%
    13:00 -1°C° 0.1 mm 2 mps 726 mmHg 94%
    14:00 -1°C° 0.1 mm 2 mps 727 mmHg 93%
    15:00 -1°C° 0 mm 2 mps 727 mmHg 93%
    16:00 0°C° 0 mm 1 mps 727 mmHg 92%
    17:00 0°C° 0 mm 1 mps 727 mmHg 91%
    18:00 0°C° 0 mm 1 mps 727 mmHg 92%
    19:00 0°C° 0 mm 1 mps 728 mmHg 93%
    20:00 -1°C° 0 mm 1 mps 729 mmHg 93%
    21:00 -1°C° 0 mm 1 mps 729 mmHg 94%
    22:00 -2°C° 0 mm 1 mps 729 mmHg 95%
    23:00 -2°C° 0 mm 1 mps 729 mmHg 95%

    1 February, Saturday

    Time Temperature Precipitation Wind Pressure Humidity
    00:00 -2°C° 0 mm 1 mps 729 mmHg 95%
    01:00 -2°C° 0 mm 1 mps 730 mmHg 95%
    02:00 -3°C° 0 mm 1 mps 730 mmHg 95%
    03:00 -3°C° 0 mm 1 mps 730 mmHg 96%
    04:00 -3°C° 0 mm 1 mps 731 mmHg 96%
    05:00 -3°C° 0 mm 1 mps 731 mmHg 96%
    06:00 -3°C° 0 mm 1 mps 731 mmHg 95%
    07:00 -3°C° 0 mm 1 mps 731 mmHg 95%
    08:00 -3°C° 0 mm 1 mps 731 mmHg 94%
    09:00 -2°C° 0 mm 1 mps 732 mmHg 92%
    10:00 -3°C° 0 mm 2 mps 732 mmHg 89%
    11:00 -2°C° 0 mm 2 mps 732 mmHg 86%
    12:00 -2°C° 0 mm 2 mps 732 mmHg 86%
    13:00 -1°C° 0 mm 2 mps 732 mmHg 87%
    14:00 -1°C° 0 mm 2 mps 732 mmHg 87%
    15:00 -1°C° 0 mm 2 mps 732 mmHg 88%
    16:00 -1°C° 0 mm 3 mps 732 mmHg 90%
    17:00 -2°C° 0 mm 3 mps 732 mmHg 91%
    18:00 -2°C° 0 mm 3 mps 732 mmHg 92%
    19:00 -2°C° 0 mm 3 mps 732 mmHg 93%
    20:00 -3°C° 0 mm 4 mps 732 mmHg 94%
    21:00 -2°C° 0 mm 4 mps 732 mmHg 95%
    22:00 -2°C° 0 mm 4 mps 731 mmHg 95%
    23:00 -2°C° 0 mm 4 mps 731 mmHg 96%

    2 February, Sunday

    Time Temperature Precipitation Wind Pressure Humidity
    00:00 -2°C° 0.1 mm 5 mps 731 mmHg 96%
    01:00 -1°C° 0.1 mm 5 mps 730 mmHg 96%
    02:00 -1°C° 0.1 mm 5 mps 730 mmHg 97%
    03:00 -2°C° 0 mm 6 mps 729 mmHg 96%
    04:00 -2°C° 0 mm 6 mps 729 mmHg 96%
    05:00 -2°C° 0 mm 6 mps 728 mmHg 96%
    06:00 -1°C° 0.2 mm 6 mps 728 mmHg 96%
    07:00 -1°C° 0.2 mm 6 mps 727 mmHg 96%
    08:00 -1°C° 0.2 mm 6 mps 727 mmHg 96%
    09:00 -1°C° 0.5 mm 6 mps 726 mmHg 96%
    10:00 -1°C° 0.5 mm 6 mps 726 mmHg 96%
    11:00 +1°C° 0.5 mm 6 mps 726 mmHg 97%
    12:00 0°C° 1.2 mm 5 mps 726 mmHg 97%
    13:00 0°C° 1.2 mm 5 mps 725 mmHg 97%
    14:00 0°C° 1.2 mm 4 mps 725 mmHg 97%
    15:00 0°C° 0.8 mm 4 mps 725 mmHg 95%
    16:00 0°C° 0.8 mm 4 mps 726 mmHg 94%
    17:00 +1°C° 0.8 mm 4 mps 726 mmHg 92%
    18:00 0°C° 0 mm 4 mps 726 mmHg 92%
    19:00 0°C° 0 mm 4 mps 726 mmHg 92%
    20:00 0°C° 0 mm 4 mps 727 mmHg 92%
    21:00 0°C° 0 mm 4 mps 727 mmHg 93%
    22:00 0°C° 0 mm 4 mps 727 mmHg 94%
    23:00 0°C° 0 mm 4 mps 727 mmHg 95%

    3 February, Monday

    Time Temperature Precipitation Wind Pressure Humidity
    00:00 0°C° 0 mm 4 mps 726 mmHg 95%
    01:00 0°C° 0 mm 3 mps 726 mmHg 96%
    02:00 0°C° 0 mm 3 mps 726 mmHg 97%
    03:00 +1°C° 0.1 mm 3 mps 726 mmHg 97%
    04:00 0°C° 0.1 mm 4 mps 726 mmHg 97%
    05:00 0°C° 0.1 mm 4 mps 726 mmHg 97%
    06:00 0°C° 0.2 mm 4 mps 726 mmHg 97%
    07:00 0°C° 0.2 mm 4 mps 726 mmHg 97%
    08:00 +1°C° 0.2 mm 3 mps 726 mmHg 97%
    09:00 0°C° 0.1 mm 4 mps 727 mmHg 93%
    10:00 0°C° 0.1 mm 4 mps 727 mmHg 88%
    11:00 0°C° 0.1 mm 4 mps 728 mmHg 84%
    12:00 -1°C° 0 mm 4 mps 728 mmHg 82%
    13:00 -1°C° 0 mm 4 mps 728 mmHg 81%
    14:00 -1°C° 0 mm 4 mps 728 mmHg 79%
    15:00 -2°C° 0 mm 4 mps 729 mmHg 81%
    16:00 -2°C° 0 mm 4 mps 729 mmHg 83%
    17:00 -2°C° 0 mm 3 mps 729 mmHg 86%
    18:00 -2°C° 0 mm 3 mps 729 mmHg 87%
    19:00 -3°C° 0 mm 4 mps 730 mmHg 88%
    20:00 -3°C° 0 mm 4 mps 730 mmHg 90%
    21:00 -3°C° 0 mm 4 mps 730 mmHg 90%
    22:00 -4°C° 0 mm 4 mps 730 mmHg 90%
    23:00 -4°C° 0 mm 4 mps 731 mmHg 89%
    Show more